TimeCST,TemperatureF,Dew PointF,Humidity,Sea Level PressureIn,VisibilityMPH,Wind Direction,Wind SpeedMPH,Gust SpeedMPH,PrecipitationIn,Events,Conditions,WindDirDegrees,DateUTC
12:15 AM,77.0,73.4,89,30.10,7.0,Variable,4.6,-,N/A,,Scattered Clouds,0,2013-12-07 06:15:00
12:35 AM,77.0,73.4,89,30.10,8.0,Variable,3.5,-,N/A,,Mostly Cloudy,0,2013-12-07 06:35:00
12:55 AM,77.0,73.4,89,30.11,7.0,SSW,10.4,19.6,N/A,,Mostly Cloudy,210,2013-12-07 06:55:00
1:15 AM,77.0,73.4,89,30.11,7.0,SSW,10.4,-,N/A,,Mostly Cloudy,210,2013-12-07 07:15:00
1:35 AM,77.0,73.4,89,30.10,7.0,SSW,12.7,18.4,N/A,,Overcast,210,2013-12-07 07:35:00
1:55 AM,77.0,73.4,89,30.10,7.0,Variable,6.9,15.0,N/A,,Mostly Cloudy,0,2013-12-07 07:55:00
2:15 AM,77.0,73.4,89,30.10,7.0,Variable,5.8,17.3,N/A,,Mostly Cloudy,0,2013-12-07 08:15:00
2:35 AM,77.0,73.4,89,30.10,7.0,SW,8.1,15.0,N/A,,Overcast,230,2013-12-07 08:35:00
2:55 AM,77.0,73.4,89,30.11,7.0,Variable,6.9,16.1,N/A,,Overcast,0,2013-12-07 08:55:00
3:15 AM,77.0,73.4,89,30.11,7.0,West,8.1,-,N/A,,Scattered Clouds,280,2013-12-07 09:15:00
3:35 AM,73.4,69.8,88,30.11,9.0,Variable,4.6,12.7,N/A,,Mostly Cloudy,0,2013-12-07 09:35:00
3:55 AM,73.4,69.8,88,30.11,7.0,Variable,3.5,-,N/A,,Overcast,0,2013-12-07 09:55:00
4:15 AM,71.6,69.8,94,30.11,4.0,Variable,4.6,-,N/A,,Overcast,0,2013-12-07 10:15:00
4:35 AM,71.6,69.8,94,30.12,5.0,Variable,4.6,11.5,N/A,,Overcast,0,2013-12-07 10:35:00
4:55 AM,71.6,69.8,94,30.12,7.0,Variable,5.8,-,N/A,,Overcast,0,2013-12-07 10:55:00
5:15 AM,71.6,68.0,88,30.14,7.0,Variable,5.8,-,N/A,,Overcast,0,2013-12-07 11:15:00
5:35 AM,69.8,68.0,94,30.14,8.0,Variable,4.6,-,N/A,,Overcast,0,2013-12-07 11:35:00
5:55 AM,69.8,68.0,94,30.15,9.0,Variable,4.6,12.7,N/A,,Overcast,0,2013-12-07 11:55:00
6:15 AM,69.8,68.0,94,30.16,10.0,Variable,5.8,15.0,N/A,,Overcast,0,2013-12-07 12:15:00
6:35 AM,69.8,66.2,88,30.16,10.0,Variable,6.9,18.4,N/A,,Overcast,0,2013-12-07 12:35:00
6:55 AM,69.8,66.2,88,30.17,9.0,North,12.7,19.6,N/A,,Overcast,360,2013-12-07 12:55:00
7:15 AM,68.0,66.2,94,30.18,6.0,NNE,17.3,-,N/A,,Overcast,20,2013-12-07 13:15:00
7:35 AM,68.0,66.2,94,30.18,5.0,North,16.1,21.9,N/A,,Overcast,10,2013-12-07 13:35:00
7:55 AM,68.0,66.2,94,30.18,5.0,NNE,19.6,-,N/A,,Overcast,20,2013-12-07 13:55:00
8:15 AM,68.0,66.2,94,30.19,5.0,NNE,15.0,21.9,N/A,,Overcast,20,2013-12-07 14:15:00
8:35 AM,68.0,66.2,94,30.20,6.0,NNE,18.4,-,N/A,,Overcast,20,2013-12-07 14:35:00
8:55 AM,68.0,66.2,94,30.20,7.0,NNE,16.1,-,N/A,,Overcast,20,2013-12-07 14:55:00
9:15 AM,68.0,64.4,88,30.20,7.0,NNE,16.1,-,N/A,,Overcast,20,2013-12-07 15:15:00
9:35 AM,68.0,64.4,88,30.21,7.0,NNE,17.3,-,N/A,,Overcast,20,2013-12-07 15:35:00
9:55 AM,68.0,64.4,88,30.21,7.0,NNE,16.1,-,N/A,,Overcast,20,2013-12-07 15:55:00
10:15 AM,68.0,64.4,88,30.21,8.0,NNE,18.4,-,N/A,,Overcast,30,2013-12-07 16:15:00
10:35 AM,68.0,64.4,88,30.21,8.0,NNE,18.4,-,N/A,,Overcast,30,2013-12-07 16:35:00
10:55 AM,68.0,64.4,88,30.21,9.0,NNE,17.3,-,N/A,,Overcast,20,2013-12-07 16:55:00
11:15 AM,68.0,64.4,88,30.20,9.0,NNE,18.4,-,N/A,,Overcast,20,2013-12-07 17:15:00
11:35 AM,68.0,64.4,88,30.19,9.0,NNE,17.3,-,N/A,,Overcast,20,2013-12-07 17:35:00
11:55 AM,68.0,66.2,94,30.18,8.0,NNE,17.3,-,N/A,,Overcast,30,2013-12-07 17:55:00
12:15 PM,68.0,66.2,94,30.18,8.0,NNE,16.1,-,N/A,,Overcast,30,2013-12-07 18:15:00
12:35 PM,68.0,64.4,88,30.17,8.0,NNE,16.1,-,N/A,,Overcast,30,2013-12-07 18:35:00
12:55 PM,68.0,66.2,94,30.16,7.0,NNE,17.3,-,N/A,,Overcast,20,2013-12-07 18:55:00
1:15 PM,68.0,66.2,94,30.15,6.0,NNE,17.3,-,N/A,,Overcast,20,2013-12-07 19:15:00
1:35 PM,68.0,66.2,94,30.15,5.0,NNE,16.1,-,N/A,,Overcast,30,2013-12-07 19:35:00
1:55 PM,68.0,66.2,94,30.15,6.0,NNE,16.1,-,N/A,,Overcast,20,2013-12-07 19:55:00
2:15 PM,68.0,66.2,94,30.14,5.0,NNE,17.3,-,N/A,,Overcast,20,2013-12-07 20:15:00
2:35 PM,68.0,66.2,94,30.15,5.0,NNE,18.4,-,N/A,,Overcast,30,2013-12-07 20:35:00
2:55 PM,68.0,66.2,94,30.14,4.0,NNE,18.4,-,N/A,,Overcast,30,2013-12-07 20:55:00
3:15 PM,66.2,66.2,100,30.14,4.0,NE,11.5,21.9,N/A,,Overcast,40,2013-12-07 21:15:00
3:35 PM,66.2,66.2,100,30.14,4.0,NE,13.8,19.6,N/A,,Overcast,40,2013-12-07 21:35:00
3:55 PM,66.2,66.2,100,30.15,4.0,NNE,16.1,-,N/A,,Overcast,30,2013-12-07 21:55:00
4:15 PM,66.2,64.4,94,30.14,3.0,NE,16.1,23.0,N/A,,Overcast,40,2013-12-07 22:15:00
4:35 PM,66.2,66.2,100,30.14,3.0,NE,11.5,17.3,N/A,,Overcast,50,2013-12-07 22:35:00
4:55 PM,66.2,66.2,100,30.14,3.0,NE,13.8,21.9,N/A,,Overcast,40,2013-12-07 22:55:00
5:15 PM,68.0,66.2,94,30.15,5.0,NE,11.5,18.4,N/A,,Overcast,50,2013-12-07 23:15:00
5:35 PM,68.0,66.2,94,30.15,5.0,NE,12.7,21.9,N/A,,Overcast,40,2013-12-07 23:35:00
5:55 PM,68.0,66.2,94,30.16,6.0,NE,15.0,21.9,N/A,,Overcast,40,2013-12-07 23:55:00
6:15 PM,68.0,66.2,94,30.16,8.0,NE,11.5,20.7,N/A,,Overcast,40,2013-12-08 00:15:00
6:35 PM,68.0,66.2,94,30.16,10.0,NE,10.4,19.6,N/A,,Overcast,40,2013-12-08 00:35:00
6:55 PM,68.0,66.2,94,30.16,10.0,NE,11.5,17.3,N/A,,Overcast,40,2013-12-08 00:55:00
7:15 PM,69.8,66.2,88,30.16,10.0,NE,10.4,17.3,N/A,,Overcast,50,2013-12-08 01:15:00
7:35 PM,69.8,66.2,88,30.17,10.0,NE,10.4,18.4,N/A,,Overcast,40,2013-12-08 01:35:00
7:55 PM,69.8,66.2,88,30.17,10.0,NE,11.5,-,N/A,,Overcast,50,2013-12-08 01:55:00
8:15 PM,69.8,66.2,88,30.17,10.0,NE,10.4,-,N/A,,Overcast,50,2013-12-08 02:15:00
8:35 PM,69.8,66.2,88,30.17,10.0,NE,9.2,18.4,N/A,,Overcast,50,2013-12-08 02:35:00
8:55 PM,69.8,68.0,94,30.17,9.0,NE,12.7,20.7,N/A,,Overcast,50,2013-12-08 02:55:00
9:15 PM,69.8,68.0,94,30.17,9.0,ENE,16.1,-,N/A,,Overcast,70,2013-12-08 03:15:00
9:35 PM,69.8,68.0,94,30.18,9.0,ENE,16.1,-,N/A,,Overcast,70,2013-12-08 03:35:00
9:55 PM,71.6,68.0,88,30.17,9.0,ENE,16.1,-,N/A,,Overcast,70,2013-12-08 03:55:00
10:15 PM,71.6,68.0,88,30.17,8.0,ENE,15.0,-,N/A,,Overcast,70,2013-12-08 04:15:00
10:35 PM,71.6,69.8,94,30.17,6.0,ENE,16.1,-,N/A,,Overcast,70,2013-12-08 04:35:00
10:55 PM,71.6,69.8,94,30.17,8.0,ENE,15.0,-,N/A,,Overcast,70,2013-12-08 04:55:00
11:15 PM,71.6,69.8,94,30.17,9.0,ENE,15.0,-,N/A,,Overcast,70,2013-12-08 05:15:00
11:35 PM,71.6,69.8,94,30.16,9.0,ENE,16.1,-,N/A,,Overcast,70,2013-12-08 05:35:00
11:55 PM,73.4,69.8,88,30.16,9.0,ENE,15.0,-,N/A,,Overcast,70,2013-12-08 05:55:00